{"data":{"norad_id":59388,"intl_designator":"2024-062Q","name":"STARLINK-31643","alt_names":[],"object_type":"PAYLOAD","status":"ACTIVE","operator":null,"country":"US","launch_date":"2024-04-02","launch_site_code":"AFWTR","launch_vehicle":null,"mission":null,"orbit_class":"UNKNOWN","rcs_meters":null,"size_class":null,"mass_kg":null,"dimensions":null,"purposes":["comms"],"wikipedia_slug":null,"has_3d_model":false,"image_url":null,"decayed_at":null,"tle_current":{"epoch":"2026-05-25T04:00:03.998880Z","epoch_age_seconds":54603,"freshness":"FRESH","line1":"1 59388U 24062Q   26145.16671295  .00042179  00000+0  12876-2 0  9990","line2":"2 59388  53.1598 260.5574 0001605  94.3555  85.4168 15.33524330  5903","mean_motion":15.3352433,"eccentricity":0.0001605,"inclination_deg":53.1598,"raan_deg":260.5574,"arg_perigee_deg":94.3555,"mean_anomaly_deg":85.4168,"bstar":0.0012876,"rev_number":590,"period_min":93.901346840712,"perigee_km":464.20878159979,"apogee_km":466.40552717334,"semimajor_km":6843.4441543866,"source":"CELESTRAK","updated_at":"2026-05-25T13:38:18.935435Z"}}}